Preview of NWS' New Version of Forecast
This preview is not operational and should not be used for support decisions.
Latest weather observations around

Elko, Elko Regional Airport (KEKO)

Using English Units (Switch to International System of Units)
Date/ Time (PDT) Wind (mph) Vis. (mi) Weather Sky Cond. Temp (°F) Rel. Humidity Wind Chill (°F) Heat Index (°F) Pressure Precip. (in)
Air Dwpt 6 hour Altimeter (inHg) Sea level (inHg) 1 hr 3 hr 6 hr
Max Min
Notice The following observation data may not be complete
Aug 19 04:56 Calm 10 Clear CLR   34      %       29.87      
Aug 19 03:56 E 3 10 Clear CLR 55 33     43%     30.03 29.85      
Notice The following observation data may not be complete
Aug 19 02:56 WSW 5 10 Clear CLR   36      %     30.01 29.84      
Notice The following observation data may not be complete
Aug 19 01:56 SW 3 10 Clear CLR   36      %     30 29.82      
Aug 19 00:56 E 6 10 Clear CLR 65 34     32%     29.98 29.79      
Aug 18 23:56 NE 5 10 Clear CLR 68 35     30%     29.97 29.77      
Aug 18 22:56 Calm 10 Clear CLR 69 32     25%     29.96 29.78      
Aug 18 21:56 Calm 10 Clear CLR 70 37     30%     29.95 29.77      
Aug 18 20:56 Calm 10 Clear CLR 75 34     22%   73 29.93 29.76      
Aug 18 19:56 Calm 10 Clear CLR 81 32     17%   80   29.75      
Aug 18 18:56 WNW 7 10 Clear CLR 91 30     11%   86   29.72      
Aug 18 17:56 Calm 10 Clear CLR 94 29     10%   89 29.9 29.72      
Aug 18 16:56 SSW 8 10 Clear CLR 94 34     12%   89 29.91 29.73      
Aug 18 15:56 Calm 10 Clear CLR 94 31     11%   89   29.75      
Aug 18 14:56 7 10 Clear CLR 94 32     11%   89 29.95 29.76      
Aug 18 13:56   10 Clear CLR 94 34     12%   89   29.78      
Aug 18 12:56 6 10 Clear CLR 91 34     13%   87   29.81      
Aug 18 11:56 3 10 Clear CLR 89 37     16%   85   29.84      
Aug 18 10:56 Calm 10 Clear CLR 81 35     19%   80   29.87      
Aug 18 09:56 Calm 10 Clear CLR 75 34     22%   73   29.87      
Aug 18 08:56 Calm 10 Clear CLR 66 32     28%       29.89      
Aug 18 07:56 ESE 3 10 Clear CLR 58 30     34%     30.05 29.91      
Aug 18 06:56 ENE 6 10 Clear CLR 53 29     39%     30.05 29.89      
Aug 18 05:56 E 6 10 Clear CLR 50 26     39%       29.87      
Aug 18 04:56 ENE 5 10 Clear CLR 52 29     41%     30.02 29.86      
Aug 18 03:56 E 3 10 Clear CLR 52 31     44%     30 29.84      
Aug 18 02:56 NE 3 10 Clear CLR 55 30     38%     29.99 29.83      
Aug 18 01:56 E 8 10 Clear CLR 56 29     35%     29.98 29.81      
Aug 18 00:56 Calm 10 Clear CLR 58 29     33%       29.8      
Aug 17 23:56 Calm 10 Clear CLR 59 32     36%     29.97 29.8      
Aug 17 22:56 W 3 10 Clear CLR 60 33     36%     29.97 29.8      
Aug 17 21:56 ENE 3 10 Clear CLR 68 31     25%       29.8      
Aug 17 20:56 NNW 5 10 Clear CLR 72 30     21%   70 29.95 29.79      
Aug 17 19:56 Calm 10 Clear CLR 76 32     20%   74 29.93 29.78      
Aug 17 18:56 WNW 10 10 Clear CLR 85 32     15%   82   29.76      
Aug 17 17:56 WNW 11 10 Clear CLR 87 32     14%   83   29.76      
Aug 17 16:56 WNW 9 10 Clear CLR 88 31     13%   84   29.77      
Aug 17 15:56 W 18 10 Clear CLR 89 32     13%   85   29.78      
Aug 17 14:56 W 16 10 Clear CLR 89 32     13%   85   29.79      
Aug 17 13:56 W 16 10 Clear CLR 89 33     14%   85   29.8      
Aug 17 12:56 WSW 13 10 Clear CLR 86 33     15%   83   29.8      
Aug 17 11:56 W 11 10 Clear CLR 84 35     17%   81   29.83      
Aug 17 10:56 SSW 9 10 Clear CLR 81 37     21%   80   29.85      
Aug 17 09:56 SSW 6 10 Clear CLR 74 40     29%   72   29.87      
Aug 17 08:56 SSW 5 10 Clear CLR 67 37     33%       29.88      
Aug 17 07:56 SW 3 10 Clear CLR 59 37     44%       29.89      
Aug 17 06:56 Calm 10 Clear CLR 54 34     47%       29.88      
Aug 17 05:56 NE 5 10 Mostly Cloudy BKN110 54 33     45%     30.02 29.85      
Aug 17 04:56 ESE 5 10 Mostly Clear FEW110 51 35     54%     30 29.84      
Aug 17 03:56 Calm 10 Clear CLR 54 33     45%     30 29.84      
Aug 17 02:56 Calm 10 Clear CLR 54 36     50%       29.83      
Aug 17 01:56 Calm 10 Clear CLR 58 33     39%       29.82      
Aug 17 00:56 Calm 10 Clear CLR 62 33     34%       29.81      
Aug 16 23:56 Calm 10 Clear CLR 64 33     31%       29.8      
Aug 16 22:56 E 5 10 Clear CLR 63 36     37%       29.81      
Aug 16 21:56 Calm 10 Clear CLR 68 33     27%       29.81      
Aug 16 20:56 Calm 10 Clear CLR 72 33     24%   70   29.81      
Aug 16 19:56 WNW 7 10 Clear CLR 79 32     18%   77   29.8      
Aug 16 18:56 WNW 13 10 Clear CLR 85 34     16%   82   29.79      
Aug 16 17:56 W 18 10 Clear CLR 88 35     15%   84   29.8      
Aug 16 16:56 WNW 8 10 Clear CLR 89 34     14%   85   29.81      
Aug 16 15:56 WNW 14 10 Clear CLR 90 35     14%   86   29.82      
Aug 16 14:56 W 18 10 Clear   90 34     14%   86   29.84      
Aug 16 13:56 W 17 10 Clear CLR 89 34     14%   85   29.87      
Aug 16 12:56 W 16 10 Clear CLR 88 35     15%   84   29.87      
Aug 16 11:56 SW 13 10 Clear CLR 86 41     21%   83   29.91      
Aug 16 10:56 6 10 Clear CLR 82 42     24%   80   29.92      
Aug 16 09:56 ENE 3 10 Clear CLR 76 42     30%   75   29.95      
Aug 16 08:56 NNE 3 10 Clear CLR 70 41     35%       29.98      
Aug 16 07:56 Calm 10 Clear CLR 62 41     46%       29.98      
Aug 16 06:56 NNE 5 10 Clear CLR 59 38     45%     30.14 29.96      
Aug 16 05:56 E 5 10 Clear CLR 55 37     51%     30.13 29.96      
Aug 16 04:56 SE 3 10 Clear CLR 52 37     57%     30.12 29.95      
Aug 16 03:56 E 3 10 Clear CLR 55 37     51%     30.12 29.93      
Aug 16 02:56 Calm 10 Clear CLR 57 38     49%       29.92      
Aug 16 01:56 WSW 3 10 Clear CLR 56 39     53%       29.92      
Aug 16 00:56 Calm 10 Clear CLR 66 36     33%       29.91      
Aug 15 23:56 Calm 10 Clear CLR 61 40     46%       29.92      
Aug 15 22:56 E 5 10 Clear CLR 72 35     26%   70   29.9      
May 15 09:56 Calm 10 Mostly Cloudy FEW046 SCT060 BKN110 53 42     66%     30.08 30.01 0    
May 15 04:56 Calm 10 Mostly Cloudy BKN060 41 37     86%     30.04 29.98      
May 13 13:56 3 10 Cloudy BKN019 OVC032 50 42     74% 49   29.99 29.94   0  
May 13 03:56 E 5 10 Cloudy BKN037 OVC044 45 40     82% 43   29.94 29.88      
May 11 22:56 W 5 10 Mostly Cloudy BKN049 37 30     76% 33   29.88 29.87      
May 11 18:49   10 Mostly Clear FEW070 49 29     46%     29.86        
May 11 14:56 SW 9 10 Partly Cloudy FEW029 SCT090 50 35     56% 46   29.87 29.81      
Jun 12 04:22 SW 11 10 Cloudy OVC014 39 35     86% 32   29.73        
Jun 12 04:05 WSW 13 10 Cloudy OVC015 40 36     86% 32   29.71        
Jun 11 15:56 NW 18 10 Light Rain FEW070 BKN100 65 34     32%     29.6 29.49 0    
Jun 11 03:56 Calm 10 Partly Cloudy SCT100 50 27     41%     29.76 29.63      
Jun 10 22:56 Calm 10 Clear CLR 58 20     23%     29.75 29.62 0   0
Notice The following observation data may not be complete
Jun 10 16:56   10 Clear CLR          %              
Jun 09 20:56 SW 5 10 Clear CLR 60 37     42%     29.82 29.7      
Jun 09 19:56 W 10 10 Clear CLR 61 37     41%     29.81 29.7      
Jun 08 22:56 W 5 10 Cloudy OVC095 60 38     44%     29.96 29.8      
Notice The following observation data may not be complete
Jun 08 01:56 Calm 10 Clear CLR   38      %     29.89 29.71      
Jun 07 20:56 Calm 10 Clear CLR 75 34     22%   73 29.83 29.65      
Jun 07 13:21 S 8 10 Clear CLR 91        %     29.95        
Jun 06 11:56 6 10 Clear CLR 84 33     16%   81 30.05 29.87      
Jun 06 07:56 Calm 10 Clear CLR 61 37     41%     30.11 29.96      
Jun 06 00:56 Calm 10 Clear CLR 60 36     40%     30.06 29.91      
Jun 05 22:56 NE 9 10 Clear CLR 65 36     34%     30.06 29.9